Location: Marcé
(47.5801°N, 0.3280°W)
Time: 20:16:34
(UTC+01:00)

Tiros 1 - Pass Details

Date: 30 November 2021
Orbit: 630 x 663 km, 48.4° (Epoch: 20 January)

Event Time Altitude Azimuth Distance (km) Brightness Sun altitude
Rises 21:25:42 0° 236° (SW) 2,924 11.0 -41.8°
Enters shadow 21:26:00 - 235° (SW) 2,808 10.9 -41.9°
Reaches altitude 10° 21:28:02 10° 232° (SW) 2,023 - -42.2°
Maximum altitude 21:32:35 54° 155° (SSE) 778 - -43.0°
Drops below altitude 10° 21:37:12 10° 78° (ENE) 2,052 - -43.7°
Sets 21:39:35 0° 74° (ENE) 2,970 - -44.1°
